Weather History for Del Rio, TX

Change the Weather History Date:

Thursday, August 21, 2014

  Actual Average Record
Temperature  
Mean Temperature 91 °F 86 °F  
Max Temperature 100 °F 97 °F 105 °F (1911)
Min Temperature 81 °F 75 °F 65 °F (1940)
Degree Days  
Heating Degree Days 0 0  
Month to date heating degree days 0 0  
Since 1 June heating degree days 0 0  
Since 1 July heating degree days 0 0  
Cooling Degree Days 26 21  
Month to date cooling degree days 471 458  
Year to date cooling degree days 2644 2436  
Since 1 June cooling degree days 1794 1677  
Growing Degree Days 40 (Base 50)    
Moisture  
Dew Point 68 °F    
Average Humidity 51    
Maximum Humidity 69    
Minimum Humidity 32    
Precipitation  
Precipitation 0.00 in 0.08 in 1.01 in (1919)
Month to date precipitation 0.78 1.30  
Year to date precipitation 7.17 12.63  
Sea Level Pressure  
Sea Level Pressure 29.90 in    
Wind  
Wind Speed 12 mph (SE)    
Max Wind Speed 21 mph    
Max Gust Speed 27 mph    
Visibility 10 miles    
Events      
T = Trace of Precipitation, MM = Missing Value Source: NWS Daily Summary

Daily Weather History Graph

Daily Weather History Graph

Search for Another Location

Airport:

Trip Planner

Search our weather history database for the weather conditions in past years. The results will help you decide how hot, cold, wet, or windy it might be!

Date:

Astronomy

Aug. 21, 2014 Rise Set
Actual Time 7:15 AM CDT 8:17 PM CDT
Civil Twilight 6:50 AM CDT 8:42 PM CDT
Nautical Twilight 6:21 AM CDT 9:11 PM CDT
Astronomical Twilight 5:51 AM CDT 9:41 PM CDT
Moon 3:54 AM CDT (8/21) 5:41 PM CDT (8/21)
Length of Visible Light 13h 51m
Length of Day
13h 02m
Waning Crescent, 13% of the Moon is Illuminated
Aug 21
Waning Crescent
Aug 25
New
Sep 2
First Quarter
Sep 8
Full
Sep 15
Last Quarter

Hourly Weather History & Observations

Time (CDT) Temp. Heat Index Dew Point Humidity Pressure Visibility Wind Dir Wind Speed Gust Speed Precip Events Conditions
12:53 AM 88.0 °F 92.1 °F 69.1 °F 53% 29.86 in 10.0 mi SE 15.0 mph - N/A   Partly Cloudy
1:53 AM 84.9 °F 88.2 °F 68.0 °F 57% 29.86 in 10.0 mi ESE 16.1 mph 21.9 mph N/A   Mostly Cloudy
2:53 AM 82.9 °F 87.0 °F 70.0 °F 65% 29.87 in 10.0 mi ESE 12.7 mph - N/A   Overcast
3:53 AM 82.0 °F 85.9 °F 70.0 °F 67% 29.87 in 10.0 mi ESE 8.1 mph - N/A   Mostly Cloudy
4:53 AM 82.9 °F 87.5 °F 71.1 °F 67% 29.88 in 10.0 mi ESE 8.1 mph - N/A   Overcast
5:53 AM 82.9 °F 88.0 °F 72.0 °F 69% 29.88 in 10.0 mi ESE 13.8 mph - N/A   Overcast
6:53 AM 82.0 °F 86.7 °F 72.0 °F 71% 29.91 in 10.0 mi ESE 15.0 mph 20.7 mph N/A   Overcast
7:53 AM 82.0 °F 86.7 °F 72.0 °F 71% 29.93 in 10.0 mi ESE 8.1 mph - N/A   Overcast
8:29 AM 81.0 °F 85.2 °F 72.0 °F 74% 29.99 in 10.0 mi ESE 13.8 mph - N/A   Overcast
8:53 AM 82.0 °F 86.7 °F 72.0 °F 71% 29.94 in 10.0 mi ESE 12.7 mph - N/A   Overcast
9:53 AM 82.0 °F 86.7 °F 72.0 °F 71% 29.95 in 10.0 mi ESE 10.4 mph 18.4 mph N/A   Overcast
10:53 AM 84.0 °F 89.0 °F 71.1 °F 65% 29.96 in 10.0 mi SE 13.8 mph - N/A   Overcast
11:02 AM 84.0 °F 89.0 °F 71.1 °F 65% 30.01 in 10.0 mi SE 13.8 mph - N/A   Overcast
11:53 AM 84.9 °F 90.1 °F 71.1 °F 63% 29.96 in 10.0 mi SE 13.8 mph - N/A   Overcast
12:53 PM 89.1 °F 95.0 °F 71.1 °F 55% 29.94 in 10.0 mi ESE 11.5 mph - N/A   Mostly Cloudy
1:53 PM 91.9 °F 98.4 °F 71.1 °F 50% 29.91 in 10.0 mi SE 12.7 mph 20.7 mph N/A   Partly Cloudy
2:53 PM 95.0 °F 101.3 °F 70.0 °F 44% 29.89 in 10.0 mi SE 15.0 mph 20.7 mph N/A   Partly Cloudy
3:53 PM 98.1 °F 103.0 °F 68.0 °F 37% 29.86 in 10.0 mi SE 13.8 mph 24.2 mph N/A   Partly Cloudy
4:53 PM 98.1 °F 101.8 °F 66.0 °F 35% 29.85 in 10.0 mi SSE 11.5 mph - N/A   Clear
5:53 PM 99.0 °F 102.3 °F 64.9 °F 33% 29.85 in 10.0 mi SE 9.2 mph - N/A   Partly Cloudy
6:53 PM 99.0 °F 101.7 °F 64.0 °F 32% 29.84 in 10.0 mi SE 12.7 mph - N/A   Clear
7:53 PM 97.0 °F 98.3 °F 63.0 °F 32% 29.84 in 10.0 mi SE 8.1 mph - N/A   Clear
8:53 PM 95.0 °F 96.0 °F 63.0 °F 34% 29.83 in 10.0 mi ESE 6.9 mph - N/A   Clear
9:53 PM 91.9 °F 92.5 °F 62.1 °F 37% 29.86 in 10.0 mi East 8.1 mph - N/A   Clear
10:53 PM 91.9 °F 90.6 °F 57.0 °F 31% 29.87 in 10.0 mi SE 13.8 mph 21.9 mph N/A   Clear
11:53 PM 90.0 °F 88.8 °F 57.9 °F 34% 29.89 in 10.0 mi SE 9.2 mph - N/A   Clear